Probability
45 45 45 43 40 38 37 39 43 44 42 37 30 25 22 23 24 23 19 17 17 14 11 10 8 7 7 7 7 7 7 7 6 4 4 4 4 6 6 5 4 4 4
43 44 45 44 42 40 40 44 48 48 46 41 35 27 24 24 25 24 21 19 17 14 12 10 9 8 9 10 9 9 8 8 7 5 5 5 6 7 7 6 4 3 4
40 42 46 47 45 43 44 48 50 51 50 47 41 34 28 25 24 23 21 20 18 16 13 12 11 11 13 14 13 11 10 9 8 7 6 6 7 7 8 7 5 4 4
38 39 44 47 47 47 47 48 49 51 50 48 45 40 32 25 21 20 19 19 18 16 14 14 14 14 14 14 14 13 11 9 8 7 6 5 5 6 8 6 5 5 6
35 36 40 45 47 48 48 48 49 49 47 46 44 41 33 23 17 16 16 17 16 16 15 15 14 13 11 10 10 10 8 7 7 6 4 4 4 6 5 5 4 5 6
34 36 39 43 47 48 48 48 47 46 44 42 40 37 31 22 15 13 14 15 15 15 14 14 12 10 7 6 5 5 4 4 6 6 5 4 5 5 4 4 4 5 5
32 35 39 43 45 46 45 45 44 44 42 39 35 32 27 20 12 9 11 14 15 14 13 13 11 8 6 4 3 2 2 2 4 5 6 6 6 5 4 4 5 5 6
28 31 36 39 40 40 40 40 41 41 40 37 33 31 28 19 10 6 8 12 14 13 13 13 12 9 5 3 3 3 2 3 3 4 6 7 6 4 4 5 6 6 6
22 25 29 32 34 34 34 34 36 37 37 34 33 33 31 21 10 4 5 10 13 13 13 12 10 8 5 3 3 4 4 4 4 4 5 5 4 4 4 6 6 6 6
20 21 25 29 31 31 31 30 30 32 33 31 31 32 29 21 11 4 4 9 13 13 12 10 7 5 4 3 4 4 4 4 4 5 5 5 5 5 5 7 7 7 7
22 22 24 28 29 28 28 29 28 29 30 29 28 28 25 18 10 4 3 8 11 12 11 8 4 3 3 3 3 4 4 4 4 4 5 6 7 7 8 9 10 10 9
22 21 22 25 26 25 26 26 26 27 28 28 27 26 22 15 8 3 2 5 8 8 7 5 3 3 2 1 1 2 3 3 3 3 4 5 6 8 10 12 12 12 12
20 20 21 22 23 24 24 24 24 24 25 26 25 24 20 13 6 2 1 1 3 4 4 3 2 1 1 1 0 1 1 3 3 4 4 5 6 7 10 12 12 12 12
19 20 21 21 22 22 21 21 20 20 21 22 20 19 16 11 6 3 1 1 1 1 2 2 1 0 1 1 1 1 1 3 4 5 6 6 6 7 8 10 11 11 11
15 17 19 20 20 19 17 15 14 13 13 14 13 12 11 8 5 3 2 2 1 1 2 2 1 1 1 2 3 2 3 3 4 5 6 6 6 6 7 9 10 10 9
11 12 15 17 18 18 15 12 9 6 5 5 6 6 6 4 3 2 1 1 1 0 1 2 3 2 3 3 3 3 3 3 4 5 7 7 7 6 7 8 9 9 9
9 9 11 13 15 16 15 12 8 4 2 1 1 2 2 1 1 0 0 0 0 0 0 1 2 2 2 2 2 2 2 3 4 5 7 7 7 6 6 7 7 8 8
8 8 8 8 11 14 15 13 10 6 3 2 2 1 0 0 0 0 0 0 0 0 0 0 1 1 1 1 1 1 1 1 2 3 5 6 6 5 5 4 4 5 6
5 6 5 5 7 11 12 11 10 7 4 3 3 1 0 0 0 0 0 0 0 0 0 0 0 0 0 0 1 1 1 0 0 1 2 4 4 4 3 3 2 2 3
4 4 3 4 6 9 10 9 8 6 5 4 4 3 1 1 1 1 0 1 1 1 1 0 0 0 0 1 2 2 1 0 0 0 1 3 3 3 3 3 1 1 2
4 3 2 3 5 8 9 8 7 6 5 5 5 4 3 3 3 2 1 1 2 3 2 1 0 0 0 1 2 2 1 0 0 0 1 3 3 3 3 3 2 1 1
2 2 1 1 2 5 7 9 9 7 5 4 4 4 3 4 5 5 3 3 3 3 3 2 1 0 0 0 1 1 0 0 0 1 2 3 3 3 3 3 3 2 1
1 1 0 0 1 1 3 7 10 8 5 3 3 4 4 5 6 7 6 5 4 4 3 3 2 2 1 1 0 0 0 0 0 1 2 3 3 3 3 3 3 2 2
2 1 1 1 1 0 1 3 7 7 5 3 3 4 6 7 7 7 7 6 5 4 4 5 5 4 4 2 1 1 0 0 0 1 2 3 3 3 3 2 1 1 1
2 1 1 2 2 1 0 1 3 4 4 3 3 4 6 7 8 7 7 7 6 6 7 7 7 5 4 3 3 2 1 0 0 0 1 2 2 2 2 1 0 0 1
3 2 2 3 3 2 1 1 2 3 3 4 2 2 4 7 7 7 7 7 7 7 8 9 7 4 3 3 3 2 1 0 0 0 0 1 1 1 1 0 0 0 1
Wind_Speed
4 4 4 4 4 3 3 2 2 2 2 2 2 3 3 2 1 1 2 2 2 2 2 2 1 1 1 1 0 0 0 1 1 1 1 1 1 2 3 2 2 4 4
4 4 3 3 3 3 2 2 3 3 3 2 2 2 2 2 2 1 1 2 2 2 2 1 1 1 1 1 1 0 0 1 1 1 1 1 1 2 3 3 3 3 3
4 4 4 3 3 3 2 2 2 3 3 3 3 2 2 2 2 2 2 2 2 2 2 2 1 1 1 1 1 1 1 1 1 1 1 1 1 2 2 3 3 2 3
2 3 3 3 3 3 2 2 2 3 3 3 3 3 2 2 1 1 2 2 2 2 2 1 1 1 1 1 1 1 1 1 1 1 1 1 1 2 2 2 2 2 3
1 2 2 3 3 3 3 2 2 2 3 2 2 2 2 2 1 1 1 2 1 1 1 1 2 3 2 0 0 0 0 1 1 1 1 1 1 1 1 1 1 1 2
1 1 2 2 2 2 2 2 2 1 1 2 2 2 1 1 1 1 0 1 1 1 1 1 2 2 2 2 2 1 0 0 1 1 1 1 1 0 1 1 1 1 2
1 1 2 2 2 2 2 2 2 2 1 1 2 2 2 1 2 1 1 1 1 1 1 1 1 1 1 1 2 2 1 1 1 1 1 1 1 1 1 2 2 2 3
1 1 1 1 1 1 2 2 1 1 1 1 1 2 2 1 1 1 1 1 1 1 1 2 2 1 1 1 0 0 1 1 2 2 2 2 2 2 2 3 4 3 3
0 1 1 1 1 1 1 1 1 1 1 1 1 1 2 2 1 1 1 1 2 1 1 1 2 2 2 2 1 1 1 2 2 3 3 4 4 5 3 2 3 3 3
0 0 1 1 1 0 1 1 1 1 1 1 1 1 2 2 2 1 1 1 1 1 2 2 2 2 2 1 0 1 2 2 2 3 4 5 5 5 5 4 3 3 3
0 0 0 1 1 1 1 1 1 2 1 1 1 1 2 2 3 3 2 1 1 1 1 2 2 4 3 2 2 2 3 4 4 4 4 4 3 3 3 4 4 3 3
1 1 1 0 2 1 1 1 2 2 2 2 2 2 1 2 3 4 4 3 2 1 1 1 2 4 3 3 3 4 4 5 4 3 3 3 3 3 3 4 4 4 4
1 1 1 1 1 1 1 2 2 2 2 2 3 2 2 2 3 3 4 3 3 1 0 0 1 4 4 4 6 6 4 3 3 3 3 3 3 3 3 3 4 4 5
2 1 2 2 2 1 1 2 2 2 2 2 2 1 2 2 2 2 3 3 3 2 2 1 3 4 4 4 4 4 4 3 3 3 3 3 3 2 3 2 3 3 3
2 2 2 2 1 1 0 1 1 0 1 1 0 0 1 1 2 2 1 1 1 1 1 2 2 2 3 3 3 3 3 3 3 3 3 3 3 2 2 2 2 2 3
2 2 2 2 1 1 1 0 2 1 1 2 1 1 1 2 4 3 2 0 0 1 1 2 3 3 3 3 3 3 3 2 2 2 2 2 2 2 2 1 2 2 3
2 2 2 2 2 2 2 2 1 0 0 0 1 2 3 3 4 3 2 1 1 2 2 3 3 3 2 2 2 2 1 1 1 2 2 2 2 2 2 2 2 2 2
3 3 3 3 3 2 2 2 2 2 2 1 1 2 3 4 5 4 2 1 2 3 3 3 3 2 2 1 2 1 1 1 2 2 2 2 2 2 2 2 2 2 2
3 2 2 2 3 2 2 2 2 2 2 2 2 2 3 4 3 2 2 2 3 2 2 2 2 2 1 1 1 1 1 1 2 2 2 2 2 2 2 2 3 3 3
2 2 3 3 3 2 2 2 1 1 1 1 1 1 2 2 2 2 3 3 2 2 2 2 2 2 1 1 1 1 1 1 2 2 1 1 1 2 2 3 3 3 2
3 2 2 3 3 2 2 1 1 2 1 1 1 0 2 2 3 2 2 2 2 2 2 2 2 1 1 1 1 1 1 1 1 1 1 1 2 2 2 3 3 2 1
3 2 2 2 1 1 1 1 1 1 1 2 1 1 3 2 1 1 1 1 2 2 1 1 2 1 1 1 1 1 1 1 1 2 2 2 2 2 2 2 2 2 2
3 3 2 1 1 1 2 2 1 1 1 2 1 1 2 1 1 1 1 1 1 1 1 0 1 2 1 1 1 1 1 1 1 2 2 2 2 2 2 2 3 2 2
3 3 2 2 1 2 2 2 2 2 3 2 1 0 0 1 0 0 1 1 1 0 1 0 1 2 2 2 1 1 1 1 1 2 3 2 3 2 2 2 2 2 2
3 2 2 2 2 2 2 2 2 2 2 2 1 1 0 0 0 1 1 0 1 1 1 1 0 1 2 1 2 2 3 3 3 3 2 2 3 3 3 3 2 2 2
3 2 2 1 1 2 2 2 2 2 2 1 1 1 0 1 0 0 1 0 0 0 0 0 1 1 1 2 3 3 3 3 2 2 2 2 3 3 2 2 3 3 2
Wind_Direction
172 180 172 173 178 188 196 176 162 164 143 151 171 168 173 178 175 188 193 177 189 198 197 198 216 241 275 280 279 222 147 174 219 254 215 174 157 155 169 198 193 182 190
162 156 155 158 168 181 186 176 166 160 157 159 173 172 176 165 158 175 205 214 210 208 212 207 208 220 234 259 265 265 227 197 190 221 230 196 194 190 186 207 215 207 194
144 151 151 161 166 170 182 179 178 167 165 169 176 175 172 169 167 183 188 211 216 208 196 190 195 203 235 237 235 248 243 234 203 203 225 201 192 195 200 227 224 220 221
125 146 158 170 175 167 164 174 176 175 169 174 178 179 183 181 175 196 197 205 201 188 172 163 162 173 212 249 234 253 249 273 253 225 220 202 192 203 202 223 230 222 231
148 149 157 165 171 172 173 170 157 161 178 176 174 177 178 172 192 195 222 187 175 159 142 139 125 117 116 140 199 357 287 292 296 273 216 225 211 194 230 249 251 242 245
235 169 151 164 166 167 161 157 155 149 158 169 175 167 156 173 49 86 58 165 142 148 148 152 143 135 146 149 133 120 110 227 276 284 276 246 263 248 292 282 287 287 278
216 162 152 146 154 165 164 150 163 163 141 148 168 164 156 109 61 71 51 161 143 135 144 137 148 120 159 208 202 201 221 235 230 234 281 287 289 289 297 282 283 274 269
197 163 118 126 140 145 145 140 159 161 174 151 165 185 153 126 108 89 12 182 137 128 128 132 121 86 23 12 353 251 249 246 232 226 247 268 277 289 273 259 260 265 267
209 109 149 156 157 152 143 138 159 193 191 197 193 185 155 148 159 146 170 200 163 169 158 126 128 116 79 51 1 278 273 270 261 243 241 240 248 258 263 267 271 273 279
166 266 192 146 145 179 156 154 175 220 223 213 201 208 178 160 175 163 178 221 184 180 161 138 126 130 128 113 245 277 272 277 282 266 257 253 247 246 241 230 242 261 275
11 213 82 102 164 209 175 208 216 222 223 202 201 220 205 181 180 178 172 207 244 226 196 170 149 147 158 187 225 254 265 285 285 266 257 252 244 234 223 218 223 231 245
353 349 21 306 256 226 184 220 229 222 217 214 216 219 200 169 166 173 181 201 243 244 221 177 160 175 185 217 236 257 273 284 276 273 267 262 251 238 231 221 224 229 228
346 334 314 281 278 249 212 225 225 224 226 220 212 207 182 155 145 162 186 210 233 242 267 271 226 214 216 229 240 254 263 260 266 274 278 278 264 242 229 222 219 230 241
298 280 265 254 252 265 247 240 240 239 234 228 217 200 179 166 156 167 188 197 210 219 239 237 239 236 234 246 244 238 242 253 261 270 276 269 266 256 239 226 225 228 236
281 273 262 249 247 245 232 292 248 236 237 231 235 226 190 180 176 164 174 202 217 211 223 224 234 227 223 224 230 224 225 231 249 269 281 288 284 270 271 260 238 243 248
265 271 264 243 218 218 210 213 35 102 138 143 158 184 198 165 157 150 153 143 209 201 222 240 244 241 232 227 232 233 228 232 248 264 271 278 291 298 286 283 272 250 255
260 262 267 255 224 216 222 211 196 96 36 199 185 178 185 186 182 188 208 239 236 188 227 243 244 245 243 243 245 248 246 238 260 272 278 280 286 291 292 292 279 267 262
253 244 253 260 252 231 228 229 217 202 192 187 210 203 198 193 195 197 186 154 234 210 236 250 253 252 250 256 259 262 258 248 252 261 271 283 293 295 298 299 290 283 281
271 270 255 262 260 240 239 242 235 224 207 188 177 172 206 204 194 180 167 224 252 250 249 257 262 260 267 272 273 281 289 277 270 272 269 280 294 300 302 302 294 290 281
262 268 271 274 268 254 243 249 257 259 259 230 207 188 164 170 186 194 204 229 239 243 256 261 266 264 251 258 269 276 283 285 284 284 296 298 298 301 302 297 293 298 297
259 243 247 272 274 278 272 254 242 255 278 292 275 203 151 190 203 206 194 207 243 258 265 269 262 262 260 263 266 263 270 280 295 314 317 315 304 292 290 296 298 304 321
279 259 233 254 278 287 280 276 269 252 260 266 258 189 171 207 216 214 210 204 235 256 265 283 292 289 308 301 286 280 284 315 335 325 315 305 293 292 298 295 299 316 318
285 288 287 255 252 262 255 252 252 278 282 272 262 187 184 230 264 278 277 264 241 259 294 303 322 334 344 344 344 359 356 343 322 316 307 304 301 292 285 285 294 307 316
284 287 288 283 269 271 274 266 252 255 264 264 270 272 167 141 318 297 297 315 309 298 322 350 3 346 351 2 15 21 16 10 352 336 322 306 297 292 288 286 292 303 307
283 289 286 285 282 274 274 277 277 269 261 261 269 262 169 132 286 299 290 298 317 339 336 337 25 350 340 17 45 42 48 52 41 5 337 311 298 294 286 288 293 294 295
292 292 294 289 283 277 271 273 280 280 268 260 265 269 197 190 193 321 306 308 338 355 314 297 304 297 349 62 80 86 75 60 39 3 316 295 289 285 291 292 297 298 303